STPSat-5

operational
NORAD ID: 43762 Int'l Des: 2018-099 Owner: STP Country: US
LEOCIRCULARRETROGRADESSO

About STPSat-5

Description loading...

Live Position

Loading 3D Globe...

Upcoming Passes

Altitude History

Altitude vs Time

uPlot chart will show altitude changes over time

Two-Line Element Set

1 43762U 18099E 26061.10360187 .00006253 00000-0 36129-3 0 9990
2 43762 97.4244 113.8017 0003055 14.7635 345.3685 15.12642693396678
Epoch: Mar 2, 2026 • Age: 26 hours

Current Status

Altitude 539.1 km
Velocity 7.59 km/s
Sub-Earth Point -33.03°S, 73.6°W
Launch Date Dec 3, 2018
Age 7.2 years
Type other

Technical Details

Classification Payload
Mass 110.00 kg
Dry Mass 100.00 kg
Total Mass 110.00 kg
Length 1.00 m
Diameter 0.40 m
Span 2.00 m
Shape Oct cyl+ 2 pan
Manufacturer SNVL
Bus Type SN-50
Phase Status In Orbit
Owner/State STP/US

Large Constellations

Loading constellations...